Weather History for KYKM - March, 2014

Change the Weather History Date:

Friday, March 7, 2014

  Actual Average Record
Temperature  
Mean Temperature 48 °F 41 °F  
Max Temperature 62 °F 53 °F 71 °F (2005)
Min Temperature 33 °F 29 °F 12 °F (1951)
Degree Days  
Heating Degree Days 17 24  
Month to date heating degree days 171 174  
Since 1 July heating degree days 4573 4701  
Cooling Degree Days 0 0  
Month to date cooling degree days 0 0  
Year to date cooling degree days 0 0  
Moisture  
Dew Point 33 °F    
Average Humidity 61    
Maximum Humidity 89    
Minimum Humidity 32    
Precipitation  
Precipitation 0.00 in 0.02 in 0.16 in (1947)
Month to date precipitation 0.57 0.18  
Year to date precipitation 2.30 2.10  
Snow  
Snow 0.00 in 0.00 in 0.90 in (1971)
Month to date snowfall 1.7 0.3  
Year to date snowfall 19.9 8.2  
Since 1 July snowfall 19.9 21.2  
Snow Depth 0.00 in    
Sea Level Pressure  
Sea Level Pressure 30.19 in    
Wind  
Wind Speed 6 mph (WNW)    
Max Wind Speed 20 mph    
Max Gust Speed 22 mph    
Visibility 10 miles    
Events      
T = Trace of Precipitation, MM = Missing Value Source: NWS Daily Summary

Daily Weather History Graph

Daily Weather History Graph

Search for Another Location

Airport or City:

Trip Planner

Search our weather history database for the weather conditions in past years. The results will help you decide how hot, cold, wet, or windy it might be!

Date:

Astronomy

Mar. 07, 2014 Rise Set
Actual Time 6:30 AM PST 5:56 PM PST
Civil Twilight 6:00 AM PST 6:27 PM PST
Nautical Twilight 5:25 AM PST 7:02 PM PST
Astronomical Twilight 4:49 AM PST 7:37 PM PST
Moon 10:05 AM PST (3/7) 12:27 AM PST (3/7)
Length of Visible Light 12h 26m
Length of Day
11h 26m
Waxing Crescent, 43% of the Moon is Illuminated
Mar 7
Waxing Crescent
Mar 8
First Quarter
Mar 16
Full
Mar 23
Last Quarter
Mar 30
New

Hourly Weather History & Observations

Time (PST) Temp. Windchill Dew Point Humidity Pressure Visibility Wind Dir Wind Speed Gust Speed Precip Events Conditions
12:53 AM 46.9 °F - 35.1 °F 63% 30.03 in 10.0 mi WSW 9.2 mph - N/A   Clear
1:53 AM 46.0 °F 39.6 °F 35.1 °F 66% 30.05 in 10.0 mi West 15.0 mph - N/A   Clear
2:53 AM 43.0 °F 41.3 °F 34.0 °F 71% 30.08 in 10.0 mi Variable 3.5 mph - N/A   Clear
3:53 AM 43.0 °F 39.5 °F 34.0 °F 71% 30.11 in 10.0 mi ENE 5.8 mph - N/A   Clear
4:53 AM 36.0 °F - 32.0 °F 86% 30.14 in 10.0 mi Calm Calm - N/A   Clear
5:53 AM 36.0 °F 33.3 °F 30.9 °F 82% 30.16 in 10.0 mi SSW 3.5 mph - N/A   Clear
6:53 AM 36.0 °F 29.6 °F 32.0 °F 86% 30.19 in 10.0 mi WNW 8.1 mph - N/A   Clear
7:53 AM 39.9 °F - 33.1 °F 77% 30.22 in 10.0 mi Calm Calm - N/A   Clear
8:53 AM 46.9 °F - 35.1 °F 63% 30.23 in 10.0 mi North 4.6 mph - N/A   Clear
9:53 AM 51.1 °F - 35.1 °F 54% 30.24 in 10.0 mi NW 9.2 mph - N/A   Clear
10:53 AM 53.1 °F - 34.0 °F 48% 30.26 in 10.0 mi NNW 12.7 mph - N/A   Clear
11:53 AM 55.0 °F - 34.0 °F 45% 30.25 in 10.0 mi NNW 10.4 mph - N/A   Clear
12:53 PM 59.0 °F - 33.1 °F 38% 30.22 in 10.0 mi NNW 10.4 mph - N/A   Clear
1:53 PM 59.0 °F - 30.9 °F 35% 30.21 in 10.0 mi Calm Calm - N/A   Clear
2:53 PM 60.1 °F - 30.9 °F 33% 30.20 in 10.0 mi ESE 3.5 mph - N/A   Clear
3:53 PM 60.1 °F - 30.0 °F 32% 30.19 in 10.0 mi Calm Calm - N/A   Clear
4:53 PM 60.1 °F - 30.9 °F 33% 30.18 in 10.0 mi SE 3.5 mph - N/A   Clear
5:53 PM 55.0 °F - 34.0 °F 45% 30.19 in 10.0 mi South 4.6 mph - N/A   Clear
6:53 PM 50.0 °F - 34.0 °F 54% 30.21 in 10.0 mi Calm Calm - N/A   Clear
7:53 PM 45.0 °F 42.6 °F 33.1 °F 63% 30.23 in 10.0 mi West 4.6 mph - N/A   Clear
8:53 PM 39.0 °F 35.7 °F 32.0 °F 76% 30.22 in 10.0 mi West 4.6 mph - N/A   Clear
9:53 PM 37.0 °F 31.0 °F 33.1 °F 86% 30.23 in 10.0 mi West 8.1 mph - N/A   Clear
10:53 PM 36.0 °F 32.1 °F 30.9 °F 82% 30.22 in 10.0 mi West 4.6 mph - N/A   Clear
11:53 PM 35.1 °F 27.9 °F 30.9 °F 85% 30.21 in 10.0 mi WSW 9.2 mph - N/A   Clear